Jaipur, India

3:42 PM IST on April 26, 2017 (GMT +0530)
Jaipur

Weather History for VIJP - November, 2013

Change the Weather History Date:

Friday, November 15, 2013

  Actual Average Record
Temperature  
Mean Temperature 66 °F -  
Max Temperature 80 °F - - ()
Min Temperature 51 °F - - ()
Growing Degree Days 16 (Base 50)    
Moisture  
Dew Point 41 °F    
Average Humidity 42    
Maximum Humidity 67    
Minimum Humidity 12    
Precipitation  
Precipitation 0.00 in - - ()
Sea Level Pressure  
Sea Level Pressure 30.04 in    
Wind  
Wind Speed 1 mph ()    
Max Wind Speed 7 mph    
Max Gust Speed -    
Visibility 1.3 miles    
Events      
T = Trace of Precipitation, MM = Missing Value Source: Averaged Metar Reports

Daily Weather History Graph

Daily Weather History Graph

Search for Another Location

Airport or City:

Trip Planner

Search our weather history database for the weather conditions in past years. The results will help you decide how hot, cold, wet, or windy it might be!

Date:

Astronomy

Nov. 15, 2013 Rise Set
Actual Time 6:46 AM IST 5:36 PM IST
Civil Twilight 6:21 AM IST 6:00 PM IST
Nautical Twilight 5:53 AM IST 6:28 PM IST
Astronomical Twilight 5:26 AM IST 6:56 PM IST
Moon 4:06 PM IST (11/15) 4:26 AM IST (11/15)
Length of Visible Light 11h 39m
Length of Day
10h 49m
Waxing Gibbous, 94% of the Moon is Illuminated
Nov 15
Waxing Gibbous
Nov 17
Full
Nov 26
Last Quarter
Dec 3
New
Dec 9
First Quarter

Hourly Weather History & Observations

Time (IST) Temp. Dew Point Humidity Pressure Visibility Wind Dir Wind Speed Gust Speed Precip Events Conditions
12:00 AM 59.0 °F 41.0 °F 51% 30.04 in 1.2 mi Calm Calm - N/A   Smoke
1:00 AM 57.2 °F 42.8 °F 59% 30.04 in 1.2 mi Calm Calm - N/A   Smoke
2:00 AM 55.4 °F 44.6 °F 67% 30.04 in 1.2 mi Calm Calm - N/A   Smoke
2:30 AM 58 °F 42 °F 43% 30.00 in 1 mi Calm Calm - -   Smoke
3:00 AM 55.4 °F 42.8 °F 63% 30.04 in 1.2 mi Calm Calm - N/A   Smoke
4:00 AM 55.4 °F 42.8 °F 63% 30.04 in 1.2 mi Calm Calm - N/A   Smoke
5:00 AM 53.6 °F 42.8 °F 67% 30.04 in 1.2 mi Variable 1.2 mph - N/A   Smoke
5:30 AM 55 °F 44 °F 58% 30.03 in 1 mi Calm Calm - -   Smoke
6:00 AM 53.6 °F 42.8 °F 67% 30.04 in 1.2 mi Calm Calm - N/A   Smoke
7:00 AM 53.6 °F 42.8 °F 67% 30.06 in 1.2 mi Calm Calm - N/A   Smoke
8:00 AM 57.2 °F 46.4 °F 67% 30.09 in 1.2 mi Calm Calm - N/A   Smoke
8:30 AM 59 °F 47 °F 55% 30.08 in 1 mi Calm Calm - -   Smoke
9:00 AM 68.0 °F 42.8 °F 40% 30.09 in 1.2 mi Variable 1.2 mph - N/A   Smoke
10:00 AM 71.6 °F 41.0 °F 33% 30.12 in 1.2 mi East 6.9 mph - N/A   Smoke
11:30 AM 75 °F 41 °F 19% 30.04 in 1 mi NE 5.8 mph - -   Haze
12:00 PM 77.0 °F 35.6 °F 22% 30.09 in 1.9 mi Variable 4.6 mph - N/A   Haze
1:00 PM 78.8 °F 35.6 °F 21% 30.06 in 1.9 mi Variable 2.3 mph - N/A   Haze
2:00 PM 77.0 °F 35.6 °F 22% 30.04 in 1.9 mi Variable 3.5 mph - N/A   Haze
2:30 PM 78 °F 35 °F 12% 29.96 in 1 mi NW 3.5 mph - -   Haze
3:00 PM 78.8 °F 35.6 °F 21% 30.01 in 1.9 mi NNW 4.6 mph - N/A   Haze
4:00 PM 77.0 °F 35.6 °F 22% 30.01 in 1.9 mi Variable 5.8 mph - N/A   Haze
5:00 PM 75.2 °F 35.6 °F 24% 30.01 in 1.9 mi Variable 4.6 mph - N/A   Haze
5:30 PM 74 °F 42 °F 21% 29.96 in 1 mi NNW 1.2 mph - -   Haze
6:00 PM 71.6 °F 37.4 °F 29% 30.04 in 1.6 mi Calm Calm - N/A   Haze
8:00 PM 64.4 °F 41.0 °F 42% 30.06 in 0.9 mi Calm Calm - N/A   Smoke
10:00 PM 62.6 °F 39.2 °F 42% 30.06 in 1.6 mi Calm Calm - N/A   Smoke
11:00 PM 60.8 °F 41.0 °F 48% 30.06 in 1.6 mi Calm Calm - N/A   Smoke
11:30 PM 60 °F 40 °F 36% 30.05 in 1 mi Calm Calm - -   Smoke